Weather Roundup
Issued by NWS Corpus Christi, TX

Home | Current Version | Previous Version | Text Only | Print | Product List | Glossary On
Versions: 1 2 3 4 5 6 7 8 9 10 11 12 13 14 15 16 17 18 19 20 21 22 23 24 25 26 27 28 29 30 31 32 33 34 35 36 37 38 39 40 41 42 43 44 45 46 47 48 49 50
000
ASUS44 KCRP 281110
HRRCRP

SOUTH TEXAS REGIONAL WEATHER ROUNDUP
NATIONAL WEATHER SERVICE CORPUS CHRISTI TX
600 AM CDT THU AUG 28 2014


TXZ229>244-281200-
...CORPUS CHRISTI AREA OBSERVATIONS...

CITY           SKY/WX    TMP DP  RH WIND       PRES   REMARKS
CORPUS CHRISTI PTCLDY    81  77  88 E3        29.84F
NAS CORPUS CHR MOCLDY    81  77  88 E6        29.83F
ROCKPORT       MOCLDY    79  76  90 E5        29.85S
KINGSVILLE NAS CLOUDY    82  77  84 N6        29.85S HX  90
ALICE          PTCLDY    80  75  84 N7        29.86F
FALFURRIAS     CLEAR     76  69  80 N5        29.84F
$$

...VICTORIA AREA OBSERVATIONS...

CITY           SKY/WX    TMP DP  RH WIND       PRES   REMARKS
VICTORIA       CLEAR     78  75  90 NE6       29.89S
BEEVILLE       MOCLDY    79  73  83 N7        29.89S
PLEASANTON     CLEAR     73  69  86 N3        29.92S
SAN ANTONIO    CLEAR     76  70  82 N5        29.94F
$$

...LAREDO AREA OBSERVATIONS...

CITY           SKY/WX    TMP DP  RH WIND       PRES   REMARKS
LAREDO         CLEAR     80  70  71 CALM      29.92F
COTULLA        CLEAR     77  68  73 E5        29.91F
DEL RIO        CLEAR     79  64  60 E8        29.93S
MCALLEN        MOCLDY    81  75  82 W9        29.85F
HEBBRONVILLE   CLEAR     76  72  85 CALM      29.89F
$$

...OTHER TEXAS OBSERVATIONS...

CITY           SKY/WX    TMP DP  RH WIND       PRES   REMARKS
BROWNSVILLE    CLOUDY    81  77  89 W9        29.83S
HOUSTON        PTCLDY    77  73  88 N3        29.92S
COL. STATION   CLEAR     76  71  85 NE3       29.94S
AUSTIN         PTCLDY    71  67  87 CALM      29.94S
WACO           CLEAR     72  65  78 CALM      29.96S
FORT WORTH     CLEAR     77  61  57 SE5       29.96R
WICHITA FALLS  CLEAR     72  62  71 SE7       29.95F
LUBBOCK        MOCLDY    74  62  66 SE8       30.03F
EL PASO        CLEAR     73  60  63 N5        30.08F
$$

...MARINE OBSERVATIONS...

STATION/POSITION TIME  SKY/WX   TEMP    WIND        PRES    VSBY  WAVE   SWELL
                                AIR SEA DIR/SP/G                  HT/PER HT/PER
                 (UTC)          (F)     (DEG/KT/KT) (MB)    (MI)  (FT/S) (FT/S)
PORT ARANSAS     1100            80 85  100/  8/  9 1011.0F
BUOY 90 E PORT A 1100            84 86  120/ 14/ 16 1011.1F         5/ 6   3/ 6
BUOY 45 SE BAFFI 1100            82 85  100/ 12/ 16 1009.0R         4/ 6   3/ 6
BUOY 200 E PT IS 1100            85 87  140/ 14/ 17 1010.4F         4/ 7   2/ 7
BUOY 15 E GALVES 1100            85 87  100/ 14/ 16 1011.9F         3/ 5   2/ 7
$$



USA.gov is the U.S. government's official web portal to all federal, state and local government web resources and services.